SCP
0 0 0 0 0 0 0 1 1 1 1 1 0 0 0 0 0 1 1 1 0 0 0 0 0 0 0 0 0 0 0 0 0 0 0 0 0 0 0 0 0 0 0
0 0 0 0 0 0 0 0 1 1 1 0 0 0 0 0 0 0 1 1 0 0 0 0 0 0 0 0 0 0 0 0 0 0 0 0 0 0 0 0 0 0 0
0 0 0 0 0 0 0 0 0 1 1 1 0 0 0 0 0 0 0 0 0 0 0 0 0 0 0 0 0 0 0 0 0 0 0 0 0 0 0 0 0 0 0
0 0 0 0 0 0 0 0 0 0 1 1 1 0 0 0 0 0 0 0 0 0 0 0 0 0 0 0 0 0 0 0 0 0 0 0 0 0 0 0 0 0 0
0 0 0 0 0 0 0 0 0 0 0 0 0 0 0 0 0 0 0 0 0 0 0 0 0 0 0 0 0 0 0 0 0 0 0 0 0 0 0 0 0 0 0
0 0 0 0 0 0 0 0 0 0 0 0 0 0 0 0 0 0 0 0 0 0 0 0 0 0 0 0 0 0 0 0 0 0 0 0 0 0 0 0 0 0 0
0 0 0 0 0 0 0 0 0 0 0 0 0 0 0 0 0 0 0 0 0 0 0 0 0 0 0 0 0 0 0 0 0 0 0 0 0 0 0 0 0 0 0
0 0 0 0 0 0 0 0 0 0 0 0 0 0 0 0 0 0 0 0 0 0 0 0 0 0 0 0 0 0 0 0 0 0 0 0 0 0 0 0 0 0 0
0 0 0 0 0 0 0 0 0 0 0 0 0 0 0 0 0 0 0 0 0 0 0 0 0 0 0 0 0 0 0 0 0 0 0 0 0 0 0 0 0 0 0
0 0 0 0 0 0 0 0 0 0 0 0 0 0 0 0 0 0 0 0 0 0 0 0 0 0 0 0 0 0 0 0 0 0 0 0 0 0 0 0 0 0 0
0 0 0 0 0 0 0 0 0 0 0 0 0 0 0 0 0 0 0 0 0 0 0 0 0 0 0 0 0 0 0 0 0 0 0 0 0 0 0 0 0 0 0
0 0 0 0 0 0 0 0 0 0 0 0 0 0 0 0 0 0 0 0 0 0 0 0 0 0 0 0 0 0 0 0 0 0 0 0 0 0 0 0 0 0 0
0 0 0 0 0 0 0 0 0 0 0 0 0 0 0 0 0 0 0 0 0 0 0 0 0 0 0 0 0 0 0 0 0 0 0 0 0 0 0 0 0 0 0
0 0 0 0 0 0 0 0 0 0 0 0 0 0 0 0 0 0 0 0 0 0 0 0 0 0 0 0 0 0 0 0 0 0 0 0 0 0 0 0 0 0 0
0 0 0 0 0 0 0 0 0 0 0 0 0 0 0 0 0 0 0 0 0 0 0 0 0 0 0 0 0 0 0 0 0 0 0 0 0 0 0 0 0 0 0
0 0 0 0 0 0 0 0 0 0 0 0 0 0 0 0 0 0 0 0 0 0 0 0 0 0 0 0 0 0 0 0 0 0 0 0 0 0 0 0 0 0 0
0 0 0 0 0 0 0 0 0 0 0 0 0 0 0 0 0 0 0 0 0 0 0 0 0 0 0 0 0 0 0 0 0 0 0 0 0 0 0 0 0 0 0
0 0 0 0 0 0 0 0 0 0 0 0 0 0 0 0 0 0 0 0 0 0 0 0 0 0 0 0 0 0 0 0 0 0 0 0 0 0 0 0 0 0 0
0 0 0 0 0 0 0 0 0 0 0 0 0 0 0 0 0 0 0 0 0 0 0 0 0 0 0 0 0 0 0 0 0 0 0 0 0 0 0 0 0 0 0
0 0 0 0 0 0 0 0 0 0 0 0 0 0 0 0 0 0 0 0 0 0 0 0 0 0 0 0 0 0 0 0 0 0 0 0 0 0 0 0 0 0 0
0 0 0 0 0 0 0 0 0 0 0 0 0 0 0 0 0 0 0 0 0 0 0 0 0 0 0 0 0 0 0 0 0 0 0 0 0 0 0 0 0 0 0
0 0 0 0 0 0 0 0 0 0 0 0 0 0 0 0 0 0 0 0 0 0 0 0 0 0 0 0 0 0 0 0 0 0 0 0 0 0 0 0 0 0 0
0 0 0 0 0 0 0 0 0 0 0 0 0 0 0 0 0 0 0 0 0 0 0 0 0 0 0 0 0 0 0 0 0 0 0 0 0 0 0 0 0 0 0
0 0 0 0 0 0 0 0 0 0 0 0 0 0 0 0 0 0 0 0 0 0 0 0 0 0 0 0 0 0 0 0 0 0 0 0 0 0 0 0 0 0 0
0 0 0 0 0 0 0 0 0 0 0 0 0 0 0 0 0 0 0 0 0 0 0 0 0 0 0 0 0 0 0 0 0 0 0 0 0 0 0 0 0 0 0
0 0 0 0 0 0 0 0 0 0 0 0 0 0 0 0 0 0 0 0 0 0 0 0 0 0 0 0 0 0 0 0 0 0 0 0 0 0 0 0 0 0 0
Wind_Speed
6 4 4 4 4 5 5 5 6 5 4 3 3 3 3 3 3 3 3 4 4 4 4 3 3 3 3 3 3 2 2 2 1 2 3 3 3 3 3 3 3 3 3
4 3 2 3 4 5 5 5 6 5 5 4 3 2 2 2 2 2 3 4 4 4 4 4 3 3 3 3 3 3 2 2 1 2 3 3 3 2 2 2 3 3 3
5 3 2 3 4 4 5 4 5 5 5 4 3 2 2 2 2 3 2 3 4 4 4 5 4 4 4 4 4 4 3 2 2 2 3 3 3 3 2 3 3 3 3
3 2 2 2 3 4 4 4 4 4 4 4 4 5 4 3 3 2 2 2 3 4 4 5 5 5 4 4 4 4 4 3 3 2 3 4 3 3 3 2 3 4 4
2 2 1 1 2 2 3 3 3 3 4 4 4 4 3 3 2 2 2 2 2 3 3 4 4 5 4 5 5 5 5 4 4 3 2 3 4 5 5 5 4 4 4
3 2 1 1 1 1 2 2 3 3 3 3 3 4 4 3 2 3 3 2 2 2 3 4 4 4 4 5 5 5 5 4 4 4 4 3 3 4 4 6 6 6 5
3 2 2 0 1 1 2 2 3 3 3 3 3 4 4 4 4 3 3 3 2 2 3 3 4 4 4 4 4 4 4 5 5 5 4 4 4 3 4 5 6 6 5
3 3 2 1 1 0 1 2 2 2 2 2 3 3 4 3 3 3 3 3 3 3 3 3 4 4 4 4 4 4 4 4 5 5 5 4 4 4 4 4 5 6 5
2 2 3 2 1 1 0 2 2 2 2 2 2 2 3 3 3 3 3 2 2 2 3 3 4 4 4 4 4 3 4 4 5 5 5 5 4 4 4 4 5 5 6
2 2 2 2 2 2 1 1 1 1 1 1 2 2 2 2 2 2 2 2 3 3 3 3 4 4 4 4 4 4 4 4 4 4 5 5 4 4 4 5 5 6 6
2 2 2 2 2 2 2 1 1 0 1 1 2 2 2 2 2 2 2 3 3 3 3 3 3 4 4 4 4 4 4 5 5 5 5 6 5 4 4 4 5 5 6
1 2 2 2 2 2 2 2 2 1 1 1 1 2 2 1 1 2 2 3 3 3 3 3 4 4 4 4 5 5 5 5 6 6 6 6 5 6 5 5 6 6 6
2 2 2 2 2 2 2 3 2 2 2 1 1 1 1 2 2 3 3 3 3 3 3 3 4 4 4 4 5 5 5 6 6 6 7 6 6 6 5 6 6 5 5
3 2 2 2 2 2 2 2 3 3 2 1 1 2 2 2 3 3 3 3 3 3 3 3 4 4 4 5 5 5 5 6 6 6 7 7 7 8 7 6 7 6 6
4 3 3 2 2 2 3 3 3 3 2 2 2 2 3 3 3 3 3 3 3 3 3 3 3 4 4 4 5 5 5 6 6 6 7 7 8 9 7 6 6 6 6
5 4 3 3 3 3 3 3 3 3 2 2 3 3 3 3 3 3 3 3 3 3 3 3 4 4 4 5 6 5 6 6 7 7 7 7 7 8 10 11 10 9 8
6 5 4 3 3 3 3 3 3 3 2 2 3 3 3 3 3 3 3 3 4 3 4 4 4 5 6 6 7 7 6 6 6 7 6 5 5 6 7 8 10 10 11
5 5 4 3 3 3 3 3 2 2 2 3 3 3 3 3 3 3 4 4 3 4 4 4 5 5 6 6 7 7 6 6 6 6 6 6 6 5 6 6 7 7 8
4 4 3 3 3 2 2 2 2 2 3 3 4 4 3 4 4 4 5 4 4 4 4 4 5 5 5 6 6 6 5 5 6 5 5 6 6 7 7 6 7 8 7
3 2 2 2 3 2 2 2 3 3 4 5 5 4 4 4 5 5 5 4 4 4 4 4 4 5 6 6 6 5 4 5 5 5 5 6 8 8 8 7 7 8 7
2 1 2 2 2 2 2 3 4 5 5 4 4 4 4 4 4 4 4 3 3 3 4 4 4 5 5 6 6 6 4 4 5 4 4 4 8 9 9 8 7 8 7
2 1 2 3 2 1 2 4 5 5 4 4 4 4 4 4 3 3 3 3 3 3 3 4 4 4 4 5 6 7 7 5 5 5 4 4 6 7 8 7 7 8 6
3 2 2 3 3 2 2 4 5 4 4 4 4 4 4 3 3 3 3 3 3 3 3 3 4 4 3 4 6 7 8 8 5 5 6 6 7 7 6 6 7 5 4
3 2 2 3 4 3 3 4 4 3 3 4 4 4 3 4 3 2 2 3 3 3 3 4 4 4 4 3 3 3 4 5 5 5 5 6 7 5 5 4 4 3 3
3 3 4 4 5 4 4 4 3 3 3 4 4 4 3 3 3 3 3 4 4 4 4 4 4 4 5 5 6 4 4 4 4 4 3 3 3 3 3 3 3 3 3
4 4 4 5 5 4 4 4 3 3 3 4 4 3 3 3 3 3 3 5 5 6 8 8 7 6 7 9 8 8 8 7 6 4 4 4 4 4 4 4 3 3 3
Wind_Direction
267 254 238 223 208 203 199 201 202 195 187 191 197 206 223 216 216 219 221 221 215 209 212 216 209 215 223 229 225 232 252 264 285 280 284 276 256 249 262 266 270 274 283
266 243 222 207 200 197 198 201 203 196 194 201 201 215 217 217 226 225 223 224 215 208 209 211 211 211 217 219 220 217 237 246 245 266 285 283 254 228 250 261 271 276 278
275 262 226 208 202 200 202 204 203 198 194 195 189 187 194 205 213 227 228 229 223 213 210 211 214 214 215 217 217 216 223 234 239 255 264 275 285 314 250 254 260 275 279
290 273 237 214 207 206 201 203 199 193 189 186 194 201 208 220 230 238 238 240 229 219 212 216 218 217 219 221 218 222 227 224 237 242 252 271 288 280 287 256 260 276 274
322 307 253 219 207 193 193 194 188 185 183 191 202 205 215 232 233 236 235 233 224 218 217 224 225 222 222 225 220 220 221 222 232 232 232 243 257 256 267 280 284 278 268
353 351 9 145 159 160 179 180 181 187 190 196 207 211 216 222 228 232 238 239 231 225 222 221 226 229 227 226 223 224 222 224 231 235 232 232 237 240 250 266 280 284 280
1 9 16 62 125 165 181 183 187 197 199 201 211 216 222 221 224 229 232 242 240 238 230 226 225 227 232 233 225 222 225 225 228 232 237 241 248 252 252 261 274 280 283
2 7 6 14 48 207 186 182 191 203 199 203 215 221 226 225 231 233 235 239 247 247 238 232 233 231 228 229 224 221 224 227 232 236 238 243 245 244 245 253 266 279 276
359 355 6 17 16 356 295 199 191 201 205 213 219 227 228 230 236 238 237 247 261 257 241 236 235 234 229 228 225 225 226 226 232 238 239 243 245 243 246 249 252 262 277
352 352 358 5 17 10 356 357 205 217 221 228 229 238 236 237 237 234 239 257 264 259 245 240 240 238 235 229 227 234 229 231 237 238 237 240 241 241 241 242 246 250 261
328 335 346 11 23 23 16 15 12 336 307 276 252 239 247 246 237 239 250 257 262 256 254 247 244 242 238 232 230 235 232 234 241 241 241 243 242 242 241 242 244 245 248
315 333 341 7 16 13 11 11 5 341 310 289 272 257 246 246 251 255 259 260 259 258 256 249 245 244 240 236 234 238 239 239 242 242 242 245 244 244 244 243 244 247 248
297 318 331 348 357 356 356 356 357 347 335 308 279 273 271 264 261 262 261 257 257 260 261 253 249 249 245 241 240 242 242 243 244 243 243 245 244 244 244 246 248 250 253
280 286 300 314 331 337 339 344 348 348 344 332 299 279 281 277 274 272 270 263 257 257 258 258 259 258 255 247 246 246 246 249 250 249 248 247 245 247 247 248 249 251 253
277 273 274 294 313 323 328 332 336 340 336 320 310 291 281 280 280 282 282 277 266 260 258 258 262 262 257 252 252 251 251 253 255 255 254 251 253 255 254 254 255 253 252
270 270 272 282 289 296 303 311 318 326 321 301 299 302 287 276 273 278 280 278 276 270 259 253 256 260 260 263 257 258 255 253 253 257 258 256 252 255 255 257 259 255 253
259 259 260 261 274 283 288 291 302 311 306 297 294 294 286 273 269 273 271 271 274 275 270 262 260 262 267 268 260 257 257 256 255 257 261 262 261 260 263 261 258 255 253
257 259 262 262 272 283 285 294 304 302 296 299 299 297 291 277 273 267 263 267 270 265 264 265 262 264 271 271 267 263 253 257 258 259 261 265 269 266 272 271 266 264 260
254 261 261 265 273 273 277 284 290 293 291 290 290 290 290 285 273 264 265 268 267 266 266 267 266 267 275 275 271 267 258 259 264 265 263 264 269 275 269 265 268 273 273
261 260 264 265 265 270 271 272 277 280 279 284 288 289 283 277 267 262 265 271 264 266 272 271 269 270 276 279 274 266 257 262 266 266 266 264 271 278 265 259 262 268 274
285 271 252 259 266 272 265 267 275 275 285 296 295 290 285 281 274 266 264 266 267 272 273 276 278 276 277 281 280 269 259 264 269 268 269 271 277 275 270 262 261 270 280
280 264 266 279 286 274 262 268 273 288 302 297 290 290 291 289 287 272 267 262 257 263 272 279 283 281 280 279 282 276 269 278 272 274 278 283 286 279 276 272 282 284 280
270 267 260 279 288 276 260 266 281 303 302 294 288 293 299 295 289 269 259 257 252 256 266 271 278 288 291 286 285 281 279 278 274 281 289 292 291 285 280 285 293 289 278
267 268 259 268 281 285 272 267 285 298 286 280 286 292 293 293 291 272 256 254 251 254 258 264 273 283 287 288 293 286 283 279 274 280 287 286 286 283 288 294 284 276 278
270 259 252 257 269 283 279 278 280 281 272 277 283 287 283 281 280 269 258 259 257 258 263 269 272 278 281 288 293 292 285 282 282 287 282 280 282 278 278 280 279 278 277
264 263 262 263 270 275 276 278 274 256 256 268 274 277 277 270 267 271 277 264 266 274 273 277 278 280 286 297 295 286 285 286 282 278 269 265 264 267 272 274 276 271 270